Terminal Aerodrome Forecast
Issued by NWS

Home | Current Version | Previous Version | Text Only | Print | Product List | Glossary On
Versions: 1 2 3 4 5 6 7 8 9 10 11 12 13 14 15 16 17 18 19 20 21 22 23 24 25 26 27 28
000
FTUS45 KGJT 212343
TAFTEX
TAF
KTEX 212343Z 2200/2224 VRB03KT P6SM VCSH OVC080
     FM221400 VRB03KT P6SM BKN080
     FM222100 27008KT P6SM VCSH BKN060=

USA.gov is the U.S. government's official web portal to all federal, state and local government web resources and services.